Starlink 30137

operational
NORAD ID: 56843 Int'l Des: 2023-079 Owner: SPXS Country: US Constellation: starlink
LEOCIRCULAR

Starlink 30137について

説明を読み込み中...

リアルタイム位置

3D地球を読み込み中...

次回通過

高度履歴

Altitude vs Time

uPlot chart will show altitude changes over time

軌道要素

1 56843U 23079W 25305.78230398 .00000256 00000-0 34023-4 0 9991
2 56843 43.0058 82.3010 0001304 271.0366 89.0327 15.02531137133649
Epoch: Nov 1, 2025 • Age: 51 hours

現在のステータス

高度 571.1 km
速度 7.58 km/s
衛星直下点 -41.73°S, 41.12°W
打ち上げ日 Jun 4, 2023
運用期間 2.4 years
タイプ internet

技術仕様

分類 Payload
質量 730.00 kg
乾燥質量 700.00 kg
総質量 730.00 kg
長さ 0.30 m
直径 4.10 m
スパン 29.00 m
形状 Box + pan
製造者 SPXS
バスタイプ Starlink V2M
フェーズステータス In Orbit
所有者/国 SPXS/US

大規模コンステレーション

Loading constellations...